Location: Splawn
(30.9202°N, 96.9858°W)
Time: 02:21:03
(UTC+00:00)

Transit 2A Rocket - Pass Details

Date: 05 March 2020
Orbit: 588 x 915 km, 66.7° (Epoch: 08 April)

Event Time Altitude Azimuth Distance (km) Brightness Sun altitude
Rises 02:52:39 0° 256° (WSW) 2,810 8.8 -31.4°
Reaches altitude 10° 02:56:53 10° 297° (WNW) 1,941 7.9 -32.3°
Maximum altitude 02:57:44 11° 309° (NW) 1,918 7.8 -32.5°
Drops below altitude 10° 02:58:35 10° 320° (NW) 1,960 7.7 -32.7°
Enters shadow 03:02:34 - 358° (N) 2,800 8.1 -33.5°
Sets 03:03:01 0° 1° (N) 2,936 - -33.6°
